Погода в Таватуе

Россия / Свердловская область     57°04′15″N   60°07′55″E
темп.,
°C
ветер,
м/с
пор.,
м/с
влажн.,
%
обл.,
%
осадки,
мм/ч
давл.,
гПа
погр.,
м
10 апреля, сб
сб1023:00+1ю11100100 0.0 102936
02:00+2ююз12100100 0.0 102958
05:00+2ююв24100100 0.0 1030120
08:00+3юв15100100 0.0 1031200
11:00+6ю249696 0.0 1031234
14:00+12ю137896 0.0 1031529
17:00+12вюв1391100 0.0 1032156
20:00+6юв2510094 0.0 103295
11 апреля, вс
вс1123:00+5ююв2898100 0.0 1032222
02:00+3ююв249896 0.0 103268
05:00+2ююв2497100 0.0 103266
08:00+5ю2691100 0.0 1032127
11:00+11ююз31073100 0.0 1031420
14:00+13юз41262100 0.0 1030786
17:00+13юз41164100 0.0 1030701
20:00+10зюз3117988 0.0 1032384
12 апреля, пн
пн1223:00+7зюз31287100 0.0 1032383
02:00+7з3995100 0.1 1033445
05:00+6з2698100 0.1 1035290
08:00+6ссз2493100 0.0 1036351
11:00+8с2360100 0.0 1037626
14:00+10ссв2356100 0.0 1037944
17:00+10ссв2260100 0.0 1037968
20:00+7св2279100 0.0 103813
13 апреля, вт
вт1323:00+4всв117795 0.0 103911
02:00+3в11845 0.0 103910
05:00+2ююв11945 0.0 103910
08:00+5ююв25850 0.0 1039182
11:00+11ю34673 0.0 1036554
14:00+15ююз345831 0.0 10341201
17:00+15юз2562100 0.0 1033428
20:00+12зюз2680100 0.0 1032105
14 апреля, ср
ср1423:00+9зюз2289100 0.0 103234
02:00+7зюз229059 0.0 103134
05:00+6зюз299113 0.0 1031152
08:00+9зюз3107060 0.0 1030295
11:00+14зюз474378 0.0 1028730
14:00+16зюз462929 0.0 10261220
17:00+16зюз473363 0.0 10241301
20:00+10з25575 0.0 102490